Showing default

LEMUR 2 KREMPEL-BRO2, 63353

Orbit data source: Space-Track

LEMUR 2 KREMPEL-BRO2, 63353 is a payload satellite owned by OroraTech (US) in SSO that was launched on Wed, 26 Mar 2025 UTC via an ELECTRON launch vehicle from the Rocket Lab Launch Complex (RLLC). Payload-class satellites include a variety of spacecraft equipped with specific instruments for various scientific and technological missions. These include communications satellites like Starlink; space stations such as the ISS; scientific satellites like the Hubble; Earth observation satellites from companies like Planet Labs, Umbra, and HawkEye 360; GPS; miniature CubeSats for education and research; and military/defense satellites.

Loading next visibility...
Identifier
63353, 2025-061C
Orbit
SSO
Last TLE update
17 hours ago
Origin
Manufacturer
Spire/Glasgow
Mission
Operational Commercial Imaging
Bus & Motor
CUBESAT 6U, Unknown motor
Mass
~15 kg wet, ~15 kg dry
Launch date (UTC)
2025-03-26 (3 months ago)
Launch vehicle
ELECTRON
Launch site
Rocket Lab Launch Complex (RLLC)
Object type
Payload
Rocket body
Debris
Shape & HBR
Box + 2 Pan, 0.4 m
Radar Cross Section
0.065 m², Medium (>0.1 m² and < 1m²)

Expand to show TLE details & history

TLE from 17 hours ago
0 LEMUR 2 KREMPEL-BRO2
1 63353U 25061C   25183.43874841  .00002495  00000-0  15618-3 0  9996
2 63353  97.5272 158.3627 0021701  25.3242 334.9046 15.10124102 14758
Epoch: 2025-07-02T10:31Z
TLE epoch observation values (Epoch: 2025-07-02T10:31:47.862Z)
Latitude
-0.00004°
Longitude
79.69344°
Altitude
525.31 km
Speed
7.608 km/s
True Right ascension
10h 33m 27s
True Declination
0° 00' 00"
Sunlit
Object was in daylight at epoch
Visualization orbit readout
Latitude
31.67956°
Longitude
-94.9772°
Altitude
548.579 km
Speed
7.586 km/s
Apparent Right ascension
00h 40m 31s
Apparent Declination
-2° 45' 03"
Sunlit
Object is in daylight
Visualization observer readout
Local Sidereal Time
14:50:13
Azimuth
46.729° ENE
Elevation
-42.645°
Doppler factor
1
Orbital elements
Apogee altitude
547.803 km
Perigee altitude
517.808 km
Semi-major axis
6,910.942 km
Eccentricity
0.00217
Inclination
97.5272°
RAAN
158.3627°
Arg. of periapsis
25.3242°
True anomaly
Unknown
Mean anomaly
334.9046°
Eccentric anomaly
Unknown
Mean motion
3.77779 °/min
Orbital period
95.29 mins
BSTAR
0.00015618
Loading maneuver chart data...
Loading SW <> Apogee altitude chart data...
Loading historical data...
Loading historical data...
Loading historical data...
Loading historical data...
Loading historical data...
Loading historical data...
Loading historical data...

LEMUR 2 KREMPEL-BRO2 Visibility forecast

Observer location: undefined°, undefined°

Span
Click to sort rows by Start time (UTC) header in descending order
Start Az.
Max El. time (UTC)
Max El. Az.
Max El.
End time (UTC)
End Az.
6 mins2025-07-03 10:57:05.694Z24.495° NE2025-07-03 11:00:05.694Z99.182° ESE39.354°2025-07-03 11:03:05.694Z175.52° S
5 mins2025-07-03 21:40:05.694Z114.883° SE2025-07-03 21:42:05.694Z72.572° E22.855°2025-07-03 21:45:05.694Z16.263° NNE
4 mins2025-07-03 23:15:05.694Z234.547° WSW2025-07-03 23:17:05.694Z276.612° WNW18.459°2025-07-03 23:19:05.694Z310.541° NW
|